METAR AND TAF INFORMATION
METAR FOR KCGF
ADDS - METARS form results

(2244 UTC 21 August 2019)
Data provider http://aviationweather.gov/metar/data/
 
METAR text: KCGF 212145Z 29008KT 10SM FEW045 SCT100 28/21 A2992
Conditions at: KCGF (CLEVLND/CUYAHOGA, OH, US) observed 2145 UTC 21 August 2019
Temperature: 28.0°C (82°F)
Dewpoint: 21.0°C (70°F) [RH = 66%]
Pressure (altimeter): 29.92 inches Hg (1013.3 mb)
Winds: from the WNW (290 degrees) at 9 MPH (8 knots; 4.1 m/s)
Visibility: 10 or more miles (16+ km)
Ceiling: at least 12,000 feet AGL
Clouds: few clouds at 4500 feet AGL
scattered clouds at 10000 feet AGL
Weather: no significant weather observed at this time

 AIRPORT MAP

 RUNWAY INFORMATION
Runway 06 Runway length 5102 ft Runway width 100 ft
Runway elevation 873 ft Runway displaced threshold 0 ft Runway heading 50
Runway 24 Runway length 5102 ft Runway width 100 ft
Runway elevation 879 ft Runway displaced threshold 0 ft Runway heading 230

 AIRPORT FREQUENCIES
Type A/D Name CLEVELAND Frequency 125.35 MHZ
Type CTAF Name CTAF Frequency 118.5 MHZ
Type GCCD Name GND/CLNC D Frequency 121.85 MHZ
Type TWR Name COUNTY TWR Frequency 118.5 MHZ
Type UNIC Name UNICOM Frequency 122.95 MHZ

 AIRPORT NEAR NAVIGATION AIDS
Type VOR-DME Name Chardon Frequency 112700 KHZ
Type NDB Name Hogaf Frequency 521 KHZ



Powered by Virtual Airlines Manager [[v2.6.2]]